Weather History for KHLC - December, 2012

Change the Weather History Date:

Sunday, December 23, 2012

  Actual Average Record
Temperature  
Mean Temperature 22 °F 29 °F  
Max Temperature 31 °F 42 °F 83 °F (1964)
Min Temperature 13 °F 17 °F -25 °F (1989)
Degree Days  
Heating Degree Days 42    
Moisture  
Dew Point 18 °F    
Average Humidity 85    
Maximum Humidity 92    
Minimum Humidity 72    
Precipitation  
Precipitation 0.00 in 0.02 in 0.03 in (1997)
Month to date precipitation 0.63 0.56  
Year to date precipitation 10.37 22.79  
Sea Level Pressure  
Sea Level Pressure 30.05 in    
Wind  
Wind Speed 4 mph (North)    
Max Wind Speed 9 mph    
Max Gust Speed -    
Visibility 9 miles    
Events      
T = Trace of Precipitation, MM = Missing Value Source: NWS Daily Summary

Daily Weather History Graph

Daily Weather History Graph

Search for Another Location

Airport or City:

Trip Planner

Search our weather history database for the weather conditions in past years. The results will help you decide how hot, cold, wet, or windy it might be!

Date:

Astronomy

Dec. 23, 2012 Rise Set
Actual Time 7:56 AM CST 5:20 PM CST
Civil Twilight 7:26 AM CST 5:50 PM CST
Nautical Twilight 6:52 AM CST 6:24 PM CST
Astronomical Twilight 6:20 AM CST 6:57 PM CST
Moon 2:11 PM CST (12/23) 3:41 AM CST (12/23)
Length of Visible Light 10h 24m
Length of Day
9h 23m
Waxing Gibbous, 82% of the Moon is Illuminated
Dec 23
Waxing Gibbous
Dec 28
Full
Jan 4
Last Quarter
Jan 11
New
Jan 18
First Quarter

Hourly Weather History & Observations

Time (CST) Temp. Windchill Dew Point Humidity Pressure Visibility Wind Dir Wind Speed Gust Speed Precip Events Conditions
12:53 AM 19.0 °F 13.9 °F 17.1 °F 92% 30.06 in 10.0 mi North 3.5 mph - N/A   Clear
1:53 AM 19.0 °F 9.0 °F 17.1 °F 92% 30.04 in 10.0 mi North 8.1 mph - N/A   Clear
2:53 AM 18.0 °F 8.7 °F 16.0 °F 92% 30.05 in 10.0 mi North 6.9 mph - N/A   Clear
3:53 AM 18.0 °F 12.7 °F 16.0 °F 92% 30.05 in 10.0 mi North 3.5 mph - N/A   Clear
4:53 AM 17.1 °F 10.0 °F 14.0 °F 88% 30.04 in 10.0 mi North 4.6 mph - N/A   Clear
6:53 AM 15.1 °F - 12.9 °F 91% 30.04 in 10.0 mi Calm Calm - N/A   Clear
7:53 AM 15.1 °F - 12.0 °F 88% 30.06 in 8.0 mi Calm Calm - N/A   Clear
8:53 AM 16.0 °F 8.8 °F 12.9 °F 88% 30.05 in 7.0 mi NE 4.6 mph - N/A   Clear
9:53 AM 19.0 °F 12.3 °F 15.1 °F 85% 30.08 in 6.0 mi NNE 4.6 mph - N/A   Clear
10:19 AM 19.4 °F 14.3 °F 15.8 °F 86% 30.01 in 7.0 mi ENE 3.5 mph - N/A   Partly Cloudy
10:53 AM 21.0 °F - 16.0 °F 81% 30.09 in 7.0 mi Calm Calm - N/A   Clear
11:53 AM 21.0 °F - 17.1 °F 85% 30.07 in 8.0 mi Calm Calm - N/A   Clear
12:53 PM 25.0 °F 20.7 °F 19.0 °F 78% 30.05 in 8.0 mi North 3.5 mph - N/A   Clear
1:53 PM 28.0 °F 24.2 °F 21.0 °F 75% 30.00 in 9.0 mi WNW 3.5 mph - N/A   Clear
2:53 PM 30.0 °F - 21.9 °F 72% 30.00 in 10.0 mi Calm Calm - N/A   Clear
3:53 PM 30.9 °F 26.2 °F 23.0 °F 72% 30.01 in 10.0 mi WNW 4.6 mph - N/A   Clear
4:53 PM 30.0 °F - 24.1 °F 79% 30.02 in 10.0 mi Calm Calm - N/A   Clear
5:53 PM 27.0 °F - 21.9 °F 81% 30.02 in 10.0 mi Calm Calm - N/A   Clear
6:53 PM 25.0 °F - 21.0 °F 85% 30.01 in 10.0 mi Calm Calm - N/A   Clear
7:53 PM 26.1 °F 16.8 °F 23.0 °F 88% 30.05 in 10.0 mi West 9.2 mph - N/A   Clear
8:53 PM 26.1 °F 19.4 °F 23.0 °F 88% 30.07 in 10.0 mi North 5.8 mph - N/A   Clear
9:53 PM 24.1 °F 14.4 °F 21.0 °F 88% 30.09 in 10.0 mi North 9.2 mph - N/A   Clear
10:53 PM 25.0 °F 19.3 °F 19.9 °F 81% 30.11 in 10.0 mi North 4.6 mph - N/A   Clear
11:53 PM 23.0 °F - 18.0 °F 81% 30.12 in 10.0 mi Calm Calm - N/A   Clear